Location: Zagreb
(45.8000°N, 16.0000°E)
Time: 14:12:11
(UTC+02:00)

Courier 1B Rocket - Pass Details

Date: 25 January 2022
Orbit: 920 x 1202 km, 28.2° (Epoch: 17 May)

Event Time Altitude Azimuth Distance (km) Brightness Sun altitude
Exits shadow 04:28:39 15° 180° (S) 2,431 7.0 -30.7°
Drops below altitude 10° 04:31:04 10° 158° (SSE) 2,716 7.5 -30.3°
Sets 04:34:53 0° 136° (SE) 3,615 8.5 -29.6°
